FW6973 Weather Reports


Display with metric or nautical units.
time (UTC)temp
F
wind
direction
speed
MPH
gust
MPH
rain 1hr
in
rain 24hr
in
rain mn
in
humidity
%
barometer
mb
20260506101557 52 0 0.0 1.0 0.00 0.00 0.00 93 1017.7
20260506094559 52 117 0.0 2.0 0.00 0.00 0.00 93 1017.5
20260506093059 52 0 0.0 3.0 0.00 0.00 0.00 94 1017.3
20260506091600 51 0 0.0 1.0 0.00 0.00 0.00 93 1017.1
20260506090055 52 0 0.0 2.0 0.00 0.00 0.00 93 1017.1
20260506084556 52 44 1.0 3.0 0.00 0.00 0.00 93 1017.2
20260506083059 51 54 1.0 4.0 0.00 0.00 0.00 93 1017.1
20260506081600 51 53 1.0 4.0 0.00 0.00 0.00 93 1016.9
20260506073058 51 50 1.0 3.0 0.00 0.00 0.00 92 1016.5
20260506071555 52 61 1.0 3.0 0.00 0.00 0.00 91 1016.5
20260506070103 52 59 1.0 4.0 0.00 0.00 0.00 91 1016.3
20260506061614 53 68 1.0 4.0 0.00 0.00 0.00 90 1016.0
20260506044635 56 61 2.0 7.0 0.00 0.00 0.00 84 1015.2
20260506043058 57 77 3.0 7.0 0.00 0.00 0.00 82 1015.1
20260506041557 57 57 3.0 7.0 0.00 0.00 0.00 81 1014.9
20260506040059 58 56 4.0 8.0 0.00 0.00 0.00 79 1014.6
20260506034556 60 80 4.0 9.0 0.00 0.00 0.00 77 1014.5
20260506033056 61 81 3.0 7.0 0.00 0.00 0.00 76 1014.4
20260506031557 62 55 3.0 7.0 0.00 0.00 0.00 74 1014.1
20260506030059 64 83 3.0 7.0 0.00 0.00 0.00 71 1013.9
20260506024600 65 67 4.0 9.0 0.00 0.00 0.00 69 1013.8
20260506023100 66 95 4.0 7.0 0.00 0.00 0.00 67 1013.6
20260506021608 67 78 2.0 7.0 0.00 0.00 0.00 67 1013.6
20260506020056 68 107 2.0 7.0 0.00 0.00 0.00 64 1013.4
20260506014557 69 138 2.0 8.0 0.00 0.00 0.00 64 1013.6
20260506013059 70 113 3.0 7.0 0.00 0.00 0.00 63 1013.5
20260506011556 70 89 3.0 7.0 0.00 0.00 0.00 63 1013.5
20260506010115 71 95 3.0 7.0 0.00 0.00 0.00 62 1013.4
20260506004555 72 83 4.0 8.0 0.00 0.00 0.00 61 1013.3
20260506003059 73 86 3.0 7.0 0.00 0.00 0.00 61 1013.4
20260506001559 74 75 2.0 7.0 0.00 0.00 0.00 62 1013.3
20260506000100 74 89 3.0 6.0 0.00 0.00 0.00 61 1013.4
20260505234609 75 77 3.0 7.0 0.00 0.00 0.00 59 1013.4
20260505233100 75 79 2.0 8.0 0.00 0.00 0.00 61 1013.5
20260505231558 76 89 3.0 8.0 0.00 0.00 0.00 59 1013.6
20260505230104 76 99 2.0 5.0 0.00 0.00 0.00 60 1013.7
20260505224605 76 82 2.0 7.0 0.00 0.00 0.00 57 1013.6
20260505223102 75 146 2.0 7.0 0.00 0.00 0.00 60 1013.8
20260505221559 75 153 1.0 10.0 0.00 0.00 0.00 60 1013.9
20260505214623 74 101 2.0 6.0 0.00 0.00 0.00 61 1014.3
20260505213105 73 55 3.0 7.0 0.00 0.00 0.00 61 1014.3
20260505211558 73 142 2.0 5.0 0.00 0.00 0.00 65 1014.4
20260505204605 71 74 1.0 5.0 0.00 0.00 0.00 68 1014.7
20260505203059 70 0 1.0 4.0 0.00 0.00 0.00 67 1014.9
20260505201558 69 153 1.0 5.0 0.00 0.00 0.00 70 1015.1
20260505200105 68 17 1.0 3.0 0.00 0.00 0.00 74 1015.2
20260505194607 66 121 1.0 5.0 0.00 0.00 0.00 77 1015.2
20260505193059 66 191 2.0 6.0 0.00 0.00 0.00 75 1015.3
20260505191559 64 142 1.0 7.0 0.00 0.00 0.00 81 1015.5
20260505190059 61 112 1.0 7.0 0.00 0.00 0.00 86 1015.5
20260505184557 60 58 1.0 7.0 0.00 0.00 0.00 86 1015.5
20260505183059 57 205 1.0 5.0 0.00 0.00 0.00 88 1015.7
20260505181558 56 297 0.0 2.0 0.00 0.00 0.00 90 1015.8
20260505180108 56 288 0.0 2.0 0.00 0.00 0.00 92 1015.8
20260505174605 55 0 1.0 4.0 0.00 0.00 0.00 91 1015.8
20260505173057 55 0 0.0 2.0 0.00 0.00 0.00 92 1015.8
20260505171557 55 0 0.0 3.0 0.00 0.00 0.00 94 1015.7
20260505170058 54 61 1.0 3.0 0.00 0.00 0.00 94 1015.8
20260505164557 54 0 0.0 4.0 0.00 0.00 0.00 94 1015.8
20260505163059 54 76 0.0 2.0 0.00 0.00 0.00 94 1015.8
20260505161621 54 0 0.0 2.0 0.00 0.00 0.00 95 1015.7
20260505160104 53 70 1.0 3.0 0.00 0.00 0.00 96 1015.6
20260505153056 53 0 0.0 0.0 0.00 0.00 0.00 97 1015.5
20260505151601 52 0 0.0 0.0 0.00 0.00 0.00 97 1015.5
20260505150108 52 0 0.0 0.0 0.00 0.00 0.00 98 1015.3
20260505140108 50 0 0.0 0.0 0.00 0.00 0.00 99 1014.9
20260505124557 46 0 0.0 0.0 0.00 0.00 0.00 98 1014.0
20260505123104 46 0 0.0 0.0 0.00 0.00 0.00 97 1014.0
20260505121603 46 0 0.0 0.0 0.00 0.00 0.00 97 1013.9
20260505120056 46 0 0.0 0.0 0.00 0.00 0.00 97 1013.7
20260505114601 47 0 0.0 0.0 0.00 0.00 0.00 97 1013.7
20260505113111 47 0 0.0 0.0 0.00 0.00 0.00 97 1013.6
20260505111557 47 0 0.0 0.0 0.00 0.00 0.00 96 1013.6